CDT,Max TemperatureF,Mean TemperatureF,Min TemperatureF,Max Dew PointF,MeanDew PointF,Min DewpointF,Max Humidity, Mean Humidity, Min Humidity, Max Sea Level PressureIn, Mean Sea Level PressureIn, Min Sea Level PressureIn, Max VisibilityMiles, Mean VisibilityMiles, Min VisibilityMiles, Max Wind SpeedMPH, Mean Wind SpeedMPH, Max Gust SpeedMPH,PrecipitationIn, CloudCover, Events, WindDirDegrees
2013-3-1,57,47,37,32,30,26,76,55,32,30.10,30.04,29.97,10,10,10,16,6,21,0.00,3,,330
2013-3-2,35,32,30,27,26,25,82,78,72,30.12,30.09,30.06,10,10,10,7,4,,0.00,0,,300
2013-3-3,51,43,33,26,22,17,75,50,26,30.16,30.13,30.08,10,10,10,10,6,20,0.00,0,,298
2013-3-4,64,47,30,54,39,25,85,66,41,30.18,30.09,29.98,10,10,10,16,5,24,0.00,3,,170
2013-3-5,73,60,42,58,51,35,90,70,48,30.09,29.99,29.89,10,10,8,21,8,30,0.00,5,Rain,269
2013-3-6,57,48,39,35,26,21,82,48,27,30.24,30.17,30.10,10,10,10,18,10,28,0.00,0,,329
2013-3-7,64,49,34,36,30,26,76,56,27,30.30,30.23,30.18,10,10,8,9,4,,0.00,2,,331
2013-3-8,73,56,39,43,34,27,86,52,18,30.27,30.20,30.15,10,9,6,7,3,,0.00,2,Rain,1
2013-3-9,72,56,41,48,43,35,89,60,28,30.19,30.14,30.06,9,6,2,14,6,23,0.00,3,Rain,131
2013-3-10,73,64,54,56,53,42,87,68,53,30.12,30.03,29.93,10,8,6,23,13,31,0.00,5,,133
2013-3-11,71,58,46,61,53,40,100,85,68,29.93,29.88,29.80,10,7,1,24,12,36,1.23,6,Rain,338
2013-3-12,64,52,39,39,34,30,80,56,29,30.14,30.04,29.93,10,10,10,20,9,28,0.00,4,,340
2013-3-13,66,52,37,36,29,19,86,46,19,30.30,30.23,30.15,10,10,4,18,6,23,0.00,0,,331
2013-3-14,64,50,36,33,24,18,73,42,17,30.40,30.31,30.25,10,10,8,14,5,17,0.00,0,,335
2013-3-15,73,54,35,46,39,29,86,58,27,30.27,30.20,30.12,10,10,10,17,5,23,0.00,0,Rain,220
2013-3-16,77,60,46,55,49,44,93,74,38,30.10,30.05,29.97,10,6,0,20,7,24,0.00,1,Fog,222
2013-3-17,73,60,48,60,53,46,94,84,57,30.03,29.97,29.90,10,4,0,13,2,,0.00,4,Fog,145
2013-3-18,81,71,62,66,62,59,90,81,58,29.96,29.87,29.78,10,7,2,20,8,25,0.00,7,Rain,149
2013-3-19,78,66,55,61,50,35,88,64,29,30.05,29.95,29.85,10,9,2,12,5,21,0.00,5,Rain-Thunderstorm,38
2013-3-20,66,54,37,34,31,25,79,38,24,30.07,30.00,29.94,10,9,1,15,7,,0.00,4,,8
2013-3-21,66,52,39,37,27,17,68,43,17,30.04,29.96,29.88,10,10,10,13,5,17,0.00,5,,336
2013-3-22,68,57,48,48,37,27,71,47,26,29.96,29.90,29.87,10,10,7,21,7,24,0.00,7,,104
2013-3-23,73,66,60,64,56,38,100,75,44,29.87,29.75,29.57,10,6,0,13,6,,0.35,8,Fog-Rain-Thunderstorm,88
2013-3-24,84,66,48,69,55,29,94,63,27,29.88,29.62,29.52,10,8,2,22,13,30,0.00,3,Rain,280
2013-3-25,60,48,37,29,22,15,68,39,20,30.18,30.03,29.89,10,10,9,20,12,29,0.00,0,,318
2013-3-26,55,44,32,26,22,20,70,46,26,30.33,30.25,30.19,10,10,10,17,8,26,0.00,0,,336
2013-3-27,62,44,28,32,24,21,81,49,22,30.40,30.32,30.25,10,10,10,12,4,,0.00,0,,331
2013-3-28,72,52,33,37,29,18,85,49,14,30.33,30.28,30.20,10,10,10,13,3,,0.00,0,,278
2013-3-29,73,55,37,50,38,27,86,59,19,30.31,30.24,30.19,10,10,8,17,3,23,0.00,1,Rain,182
2013-3-30,77,60,46,58,50,44,94,77,36,30.21,30.14,30.04,10,5,0,15,2,24,0.00,1,Fog,191
2013-3-31,81,66,52,63,57,50,94,82,47,30.06,30.00,29.88,10,5,0,18,3,30,0.00,5,Fog-Rain,204